• In Deutschland
  • Länderverzeichnis
  • Für 7 Tage
  • Wassertemperatur
  • Satellitenkarten
  • Wetterkarte
  • Widgets
  • user-avatar
    Anmelden

    Stündliche Wetter Shaki

    Heute, 25 Mai, Donnerstag

    Zeit Temperatur Niederschläge Wind Luftdruck Luftfeuchtigkeit
    00:00 +14°C° 0 mm 2 m/S 735 mmHg 61%
    01:00 +13°C° 0 mm 2 m/S 735 mmHg 60%
    02:00 +13°C° 0 mm 2 m/S 735 mmHg 59%
    03:00 +13°C° 0 mm 2 m/S 735 mmHg 58%
    04:00 +14°C° 0 mm 2 m/S 735 mmHg 54%
    05:00 +15°C° 0 mm 2 m/S 735 mmHg 51%
    06:00 +17°C° 0 mm 2 m/S 735 mmHg 48%
    07:00 +19°C° 0 mm 2 m/S 735 mmHg 43%
    08:00 +20°C° 0 mm 3 m/S 736 mmHg 37%
    09:00 +22°C° 0 mm 3 m/S 736 mmHg 32%
    10:00 +24°C° 0 mm 3 m/S 735 mmHg 30%
    11:00 +25°C° 0 mm 3 m/S 735 mmHg 28%
    12:00 +26°C° 0 mm 3 m/S 735 mmHg 25%
    13:00 +26°C° 0 mm 3 m/S 735 mmHg 25%
    14:00 +27°C° 0 mm 3 m/S 735 mmHg 24%
    15:00 +27°C° 0 mm 3 m/S 735 mmHg 24%
    16:00 +26°C° 0 mm 3 m/S 735 mmHg 27%
    17:00 +25°C° 0 mm 2 m/S 735 mmHg 31%
    18:00 +24°C° 0 mm 2 m/S 735 mmHg 35%
    19:00 +20°C° 0 mm 2 m/S 736 mmHg 37%
    20:00 +18°C° 0 mm 2 m/S 736 mmHg 39%
    21:00 +15°C° 0 mm 2 m/S 736 mmHg 41%
    22:00 +15°C° 0 mm 2 m/S 736 mmHg 46%
    23:00 +15°C° 0 mm 2 m/S 736 mmHg 51%

    Morgen, 26 Mai, Freitag

    Zeit Temperatur Niederschläge Wind Luftdruck Luftfeuchtigkeit
    00:00 +14°C° 0 mm 2 m/S 736 mmHg 57%
    01:00 +14°C° 0 mm 1 m/S 736 mmHg 61%
    02:00 +13°C° 0 mm 1 m/S 736 mmHg 65%
    03:00 +13°C° 0 mm 1 m/S 736 mmHg 69%
    04:00 +14°C° 0 mm 1 m/S 736 mmHg 65%
    05:00 +16°C° 0 mm 1 m/S 736 mmHg 62%
    06:00 +18°C° 0 mm 1 m/S 736 mmHg 58%
    07:00 +20°C° 0 mm 1 m/S 736 mmHg 51%
    08:00 +22°C° 0 mm 1 m/S 736 mmHg 45%
    09:00 +24°C° 0 mm 2 m/S 736 mmHg 39%
    10:00 +25°C° 0 mm 2 m/S 735 mmHg 35%
    11:00 +26°C° 0 mm 2 m/S 735 mmHg 31%
    12:00 +27°C° 0 mm 2 m/S 735 mmHg 27%
    13:00 +27°C° 0 mm 2 m/S 734 mmHg 27%
    14:00 +27°C° 0 mm 2 m/S 734 mmHg 26%
    15:00 +28°C° 0 mm 2 m/S 734 mmHg 26%
    16:00 +27°C° 0 mm 1 m/S 734 mmHg 30%
    17:00 +26°C° 0 mm 1 m/S 733 mmHg 35%
    18:00 +25°C° 0 mm 1 m/S 733 mmHg 39%
    19:00 +23°C° 0 mm 1 m/S 734 mmHg 37%
    20:00 +20°C° 0 mm 2 m/S 734 mmHg 35%
    21:00 +18°C° 0 mm 2 m/S 734 mmHg 34%
    22:00 +18°C° 0 mm 2 m/S 734 mmHg 38%
    23:00 +17°C° 0 mm 2 m/S 734 mmHg 43%

    übermorgen, 27 Mai, Samstag

    Zeit Temperatur Niederschläge Wind Luftdruck Luftfeuchtigkeit
    00:00 +16°C° 0 mm 2 m/S 734 mmHg 48%
    01:00 +16°C° 0 mm 2 m/S 734 mmHg 51%
    02:00 +15°C° 0 mm 1 m/S 734 mmHg 55%
    03:00 +15°C° 0 mm 1 m/S 733 mmHg 58%
    04:00 +16°C° 0 mm 1 m/S 733 mmHg 56%
    05:00 +18°C° 0 mm 1 m/S 733 mmHg 54%
    06:00 +20°C° 0 mm 1 m/S 733 mmHg 53%
    07:00 +22°C° 0 mm 1 m/S 733 mmHg 47%
    08:00 +23°C° 0 mm 1 m/S 733 mmHg 41%
    09:00 +25°C° 0 mm 2 m/S 733 mmHg 36%
    10:00 +26°C° 0 mm 2 m/S 733 mmHg 33%
    11:00 +27°C° 0 mm 2 m/S 732 mmHg 30%
    12:00 +28°C° 0 mm 2 m/S 732 mmHg 27%
    13:00 +28°C° 0 mm 2 m/S 731 mmHg 27%
    14:00 +29°C° 0 mm 2 m/S 731 mmHg 27%
    15:00 +29°C° 0 mm 2 m/S 731 mmHg 27%
    16:00 +28°C° 0,1 mm 2 m/S 731 mmHg 31%
    17:00 +27°C° 0,1 mm 2 m/S 731 mmHg 35%
    18:00 +26°C° 0,1 mm 2 m/S 731 mmHg 39%
    19:00 +24°C° 0,1 mm 2 m/S 731 mmHg 41%
    20:00 +20°C° 0,1 mm 2 m/S 731 mmHg 43%
    21:00 +18°C° 0,1 mm 2 m/S 731 mmHg 45%
    22:00 +18°C° 0 mm 2 m/S 731 mmHg 45%
    23:00 +17°C° 0 mm 2 m/S 731 mmHg 46%

    28 Mai, Sonntag

    Zeit Temperatur Niederschläge Wind Luftdruck Luftfeuchtigkeit
    00:00 +17°C° 0 mm 2 m/S 731 mmHg 46%
    01:00 +17°C° 0 mm 2 m/S 731 mmHg 47%
    02:00 +17°C° 0 mm 2 m/S 731 mmHg 47%
    03:00 +17°C° 0 mm 2 m/S 731 mmHg 48%
    04:00 +18°C° 0 mm 2 m/S 731 mmHg 47%
    05:00 +19°C° 0 mm 2 m/S 732 mmHg 47%
    06:00 +20°C° 0 mm 2 m/S 732 mmHg 47%
    07:00 +22°C° 0 mm 3 m/S 732 mmHg 40%
    08:00 +25°C° 0 mm 3 m/S 732 mmHg 34%
    09:00 +28°C° 0 mm 3 m/S 732 mmHg 28%
    10:00 +29°C° 0 mm 4 m/S 731 mmHg 26%
    11:00 +30°C° 0 mm 4 m/S 731 mmHg 24%
    12:00 +32°C° 0 mm 4 m/S 731 mmHg 22%
    13:00 +32°C° 0 mm 4 m/S 731 mmHg 21%
    14:00 +32°C° 0 mm 4 m/S 731 mmHg 21%
    15:00 +32°C° 0 mm 4 m/S 730 mmHg 21%
    16:00 +30°C° 0 mm 4 m/S 731 mmHg 25%
    17:00 +29°C° 0 mm 4 m/S 731 mmHg 29%
    18:00 +27°C° 0 mm 3 m/S 732 mmHg 33%
    19:00 +25°C° 0 mm 3 m/S 732 mmHg 38%
    20:00 +21°C° 0 mm 2 m/S 733 mmHg 44%
    21:00 +18°C° 0 mm 2 m/S 734 mmHg 50%
    22:00 +18°C° 0,1 mm 2 m/S 734 mmHg 52%
    23:00 +18°C° 0,1 mm 1 m/S 734 mmHg 55%

    29 Mai, Montag

    Zeit Temperatur Niederschläge Wind Luftdruck Luftfeuchtigkeit
    00:00 +16°C° 0,1 mm 1 m/S 735 mmHg 57%
    01:00 +15°C° 0 mm 1 m/S 735 mmHg 60%
    02:00 +15°C° 0 mm 1 m/S 735 mmHg 62%
    03:00 +14°C° 0 mm 1 m/S 736 mmHg 64%
    04:00 +16°C° 0 mm 1 m/S 736 mmHg 60%
    05:00 +18°C° 0 mm 1 m/S 737 mmHg 56%
    06:00 +20°C° 0 mm 1 m/S 737 mmHg 52%
    07:00 +20°C° 0 mm 2 m/S 738 mmHg 49%
    08:00 +23°C° 0 mm 2 m/S 738 mmHg 45%
    09:00 +24°C° 0 mm 3 m/S 738 mmHg 42%
    10:00 +25°C° 0 mm 3 m/S 738 mmHg 41%
    11:00 +26°C° 0 mm 3 m/S 738 mmHg 41%
    12:00 +26°C° 0 mm 4 m/S 738 mmHg 41%
    13:00 +26°C° 0 mm 4 m/S 738 mmHg 42%
    14:00 +26°C° 0 mm 4 m/S 738 mmHg 43%
    15:00 +26°C° 0 mm 4 m/S 738 mmHg 44%
    16:00 +25°C° 0 mm 4 m/S 738 mmHg 48%
    17:00 +23°C° 0 mm 4 m/S 738 mmHg 51%
    18:00 +22°C° 0 mm 5 m/S 738 mmHg 54%
    19:00 +20°C° 0 mm 4 m/S 739 mmHg 61%
    20:00 +18°C° 0 mm 4 m/S 739 mmHg 67%
    21:00 +15°C° 0 mm 4 m/S 739 mmHg 74%
    22:00 +14°C° 0 mm 3 m/S 739 mmHg 74%
    23:00 +14°C° 0 mm 3 m/S 739 mmHg 75%

    30 Mai, Dienstag

    Zeit Temperatur Niederschläge Wind Luftdruck Luftfeuchtigkeit
    00:00 +14°C° 0 mm 2 m/S 739 mmHg 75%
    01:00 +14°C° 0 mm 2 m/S 738 mmHg 76%
    02:00 +13°C° 0 mm 2 m/S 738 mmHg 76%
    03:00 +13°C° 0 mm 2 m/S 738 mmHg 76%
    04:00 +14°C° 0 mm 1 m/S 738 mmHg 71%
    05:00 +15°C° 0 mm 1 m/S 738 mmHg 66%
    06:00 +16°C° 0 mm 1 m/S 738 mmHg 62%
    07:00 +19°C° 0 mm 1 m/S 737 mmHg 57%
    08:00 +20°C° 0 mm 2 m/S 737 mmHg 52%
    09:00 +23°C° 0 mm 2 m/S 737 mmHg 47%
    10:00 +24°C° 0 mm 2 m/S 736 mmHg 43%
    11:00 +25°C° 0 mm 2 m/S 735 mmHg 39%
    12:00 +27°C° 0 mm 2 m/S 735 mmHg 35%
    13:00 +27°C° 0 mm 2 m/S 734 mmHg 33%
    14:00 +28°C° 0 mm 3 m/S 734 mmHg 32%
    15:00 +28°C° 0 mm 3 m/S 733 mmHg 30%
    16:00 +28°C° 0 mm 3 m/S 733 mmHg 32%
    17:00 +27°C° 0 mm 2 m/S 733 mmHg 34%
    18:00 +27°C° 0 mm 2 m/S 733 mmHg 36%
    19:00 +24°C° 0 mm 2 m/S 733 mmHg 40%
    20:00 +21°C° 0 mm 2 m/S 733 mmHg 44%
    21:00 +19°C° 0 mm 2 m/S 733 mmHg 48%
    22:00 +18°C° 0 mm 2 m/S 733 mmHg 47%
    23:00 +18°C° 0 mm 2 m/S 733 mmHg 46%
    Mehr zeigen